TimeCDT,TemperatureF,Dew PointF,Humidity,Sea Level PressureIn,VisibilityMPH,Wind Direction,Wind SpeedMPH,Gust SpeedMPH,PrecipitationIn,Events,Conditions,WindDirDegrees,DateUTC
12:53 AM,78.1,69.1,74,29.99,10.0,Calm,Calm,-,N/A,,Clear,0,2013-08-23 05:53:00
1:53 AM,77.0,69.1,76,29.98,10.0,Calm,Calm,-,N/A,,Clear,0,2013-08-23 06:53:00
2:53 AM,75.9,70.0,82,29.98,10.0,Calm,Calm,-,N/A,,Clear,0,2013-08-23 07:53:00
3:53 AM,75.0,70.0,84,29.98,10.0,Calm,Calm,-,N/A,,Clear,0,2013-08-23 08:53:00
4:53 AM,75.0,69.1,82,29.97,10.0,SSE,3.5,-,N/A,,Clear,150,2013-08-23 09:53:00
5:53 AM,73.9,69.1,85,29.98,10.0,Calm,Calm,-,N/A,,Clear,0,2013-08-23 10:53:00
6:53 AM,73.9,68.0,82,30.00,10.0,Calm,Calm,-,N/A,,Clear,0,2013-08-23 11:53:00
7:53 AM,77.0,70.0,79,30.02,10.0,Calm,Calm,-,N/A,,Clear,0,2013-08-23 12:53:00
8:53 AM,84.0,71.1,65,30.01,10.0,Calm,Calm,-,N/A,,Clear,0,2013-08-23 13:53:00
9:53 AM,88.0,72.0,59,30.02,10.0,Variable,3.5,-,N/A,,Partly Cloudy,0,2013-08-23 14:53:00
10:53 AM,91.0,70.0,50,30.01,10.0,NW,4.6,-,N/A,,Scattered Clouds,320,2013-08-23 15:53:00
11:53 AM,93.0,69.1,45,30.00,10.0,SE,3.5,-,N/A,,Scattered Clouds,130,2013-08-23 16:53:00
12:53 PM,95.0,69.1,43,29.98,10.0,NE,6.9,-,N/A,,Scattered Clouds,40,2013-08-23 17:53:00
1:53 PM,96.1,68.0,40,29.95,10.0,Variable,5.8,-,N/A,,Scattered Clouds,0,2013-08-23 18:53:00
2:53 PM,98.1,66.0,35,29.93,10.0,ENE,8.1,-,N/A,,Clear,60,2013-08-23 19:53:00
3:53 PM,97.0,64.9,35,29.90,10.0,East,3.5,-,N/A,,Scattered Clouds,100,2013-08-23 20:53:00
4:53 PM,97.0,66.0,36,29.89,10.0,East,13.8,23.0,N/A,,Scattered Clouds,80,2013-08-23 21:53:00
5:53 PM,96.1,66.0,37,29.89,10.0,ESE,8.1,-,N/A,,Clear,110,2013-08-23 22:53:00
6:53 PM,95.0,63.0,34,29.89,10.0,East,9.2,-,N/A,,Clear,90,2013-08-23 23:53:00
7:53 PM,89.1,64.9,45,29.89,10.0,ENE,3.5,-,N/A,,Clear,70,2013-08-24 00:53:00
8:53 PM,87.1,64.9,48,29.91,10.0,East,3.5,-,N/A,,Clear,80,2013-08-24 01:53:00
9:53 PM,87.1,68.0,53,29.95,10.0,ESE,6.9,-,N/A,,Clear,120,2013-08-24 02:53:00
10:53 PM,84.0,69.1,61,29.96,10.0,ESE,4.6,-,N/A,,Clear,110,2013-08-24 03:53:00
11:53 PM,82.9,69.1,63,29.97,10.0,East,4.6,-,N/A,,Clear,100,2013-08-24 04:53:00